Location: Tel Aviv
(32.0670°N, 34.7670°E)
Time: 05:00:43
(UTC+03:00)

Vanguard 2 - Pass Details

Date: 23 January 2022
Orbit: 552 x 2935 km, 32.9° (Epoch: 25 May)

Event Time Altitude Azimuth Distance (km) Brightness Sun altitude
Rises 04:59:56 0° 278° (W) 6,764 - -21.1°
Reaches altitude 10° 05:06:40 10° 263° (W) 5,753 - -19.7°
Exits shadow 05:10:21 15° 252° (WSW) 5,301 11.3 -18.9°
Maximum altitude 05:16:42 18° 228° (SW) 4,812 11.2 -17.6°
Drops below altitude 10° 05:25:39 10° 191° (S) 4,993 11.7 -15.7°
Sets 05:30:57 0° 174° (S) 5,589 12.2 -14.6°
